Regional Weather Roundup
Issued by NWS Charleston, SC

Home | Current Version | Previous Version | Text Only | Print | Product List | Glossary On
Versions: 1 2 3 4 5 6 7 8 9 10 11 12 13 14 15 16 17 18 19 20 21 22 23 24 25 26 27 28 29 30 31 32 33 34 35 36 37 38 39 40 41 42 43 44 45 46 47 48 49 50
000
ASUS42 KCHS 240927
RWRCHS

REGIONAL WEATHER ROUNDUP
NATIONAL WEATHER SERVICE CHARLESTON SC
500 AM EDT THU AUG 24 2017

NOTE: "FAIR" INDICATES FEW OR NO CLOUDS BELOW 12,000 FEET WITH NO
SIGNIFICANT WEATHER AND/OR OBSTRUCTIONS TO VISIBILITY.

NOT ALL STATIONS ARE QUALITY CONTROLLED. USE DATA WITH CAUTION...
ESPECIALLY DEWPOINT OBSERVATIONS.

SCZ027-030-031-034>040-042>050-241000-
...SOUTHEAST SOUTH CAROLINA...

CITY           SKY/WX    TMP DP  RH WIND       PRES   REMARKS
N CHARLESTON   MOCLDY    78  73  84 W3        29.83F
WATERFRONT PRK   N/A     82  77  84 CALM      29.69S HX  90
JOHNS ISLAND   CLOUDY    81  79  94 CALM      29.85S THUNDER
PINOPOLIS        N/A     79  75  89 SW5       29.78R
MONCKS CORNER  FAIR      73  73 100 CALM      29.83F
SUMMERVILLE    FAIR      75  73  94 CALM      29.84F
BEAUFORT MCAS  CLEAR     78  77  96 SW5       29.85S
BEAUFORT ARPT  FAIR      79  72  78 SW7       29.84F
HILTON HEAD IS MOCLDY    81  73  78 SW8       29.86F
WALTERBORO     SUNNY     75  73  94 CALM      29.85F
ALLENDALE      NOT AVBL

...SOUTHERN MIDLANDS AND PEE DEE...

CITY           SKY/WX    TMP DP  RH WIND       PRES   REMARKS
GEORGETOWN     FAIR      72  72 100 CALM      29.86F
KINGSTREE      FAIR      70  70 100 CALM      29.84F
ORANGEBURG     CLEAR     75  72  90 S3        29.85R
BARNWELL       FAIR      77  75  94 CALM      29.85S
AIKEN          FAIR      70  68  94 CALM      29.90R
MANNING        FAIR      77  64  65 W13       29.83F
COLUMBIA       CLEAR     77  72  84 NE3       29.85R
SUMTER         CLOUDY    75  73  93 NW3       29.83S
FLORENCE       CLOUDY    72  72 100 CALM      29.87R
MYRTLE BEACH   NOT AVBL
N MYRTLE BEACH CLOUDY    75  71  87 S6        29.85

$$

GAZ063-065-086>088-099>101-113>116-118-119-134>141-150-241000-
...SOUTHEAST GEORGIA...

CITY           SKY/WX    TMP DP  RH WIND       PRES   REMARKS
SAVANNAH ARPT  CLEAR     77  75  93 S7        29.86S
HUNTER AAF     CLEAR     78  73  84 SW6       29.84S
FORT STEWART   CLEAR     77  73  88 S3        29.84S
STATESBORO     CLEAR     78  75  89 CALM      29.85F
SYLVANIA         N/A     76  76 100 CALM      29.86S
CLAXTON        FAIR      76  76  98 CALM      29.86S FOG

...CSRA...CENTRAL AND FAR SOUTHEAST GEORGIA...

CITY           SKY/WX    TMP DP  RH WIND       PRES   REMARKS
THOMSON        PTCLDY    71  68  93 CALM      29.92R
AUGUSTA-BUSH   MOCLDY    76  72  87 W3        29.84S
AUGUSTA-DANIEL MOCLDY    79  69  71 MISG      29.87R
SWAINSBORO     FAIR      73  73 100 CALM      29.87F
VIDALIA        CLEAR     77  75  94 SW3       29.86S
EASTMAN        FAIR      76  76 100 CALM      29.89S
HAZLEHURST     FAIR      78  72  82 CALM      29.86S
ALMA           PTCLDY    76  73  91 CALM      29.86
WAYCROSS       PTCLDY    76  73  90 S3        29.86S
JESUP          FAIR      75  72  88 CALM      29.87S
BAXLEY         FAIR      73  73 100 CALM      29.86F
BRUNSWICK      CLEAR     79  73  83 SW6       29.88S
SAINT SIMONS   MOCLDY    81  77  88 SW8       29.87S

$$

SCZ027-028-034-036>038-045-046-048>050-GAZ119-141-241000-
...LAKE AND SUPPLEMENTAL COASTAL OBSERVATIONS...

STATION/POSITION TIME  TEMP    WIND        PRES    WAVE   SWELL
                       AIR SEA DIR/SP/G            HT/PER HT/PER/DIR
                 (UTC) (F)     (DEG/KT/KT) (MB)    (FT/S) (FT/S/D)
WINYAH BAY       0845   75      80/  2     1011.0S
LAKE MURRAY      0920   75      CALM  /  3 1010.5R
ACE BASIN NERRS  0845   80        CALM     1011.0S
FORT PULASKI     0900   80 86  230/  5/  9 1011.5
SAPELO ISLAND    0900   80     210/  7     1011.0

$$

ANZ835-935-AMZ111-154-330-350-352-354-370-450-454-472-241000-
...C-MAN AND BUOY OBSERVATIONS...

STATION/POSITION TIME  TEMP    WIND        PRES    WAVE   SWELL
                       AIR SEA DIR/SP/G            HT/PER HT/PER/DIR
                 (UTC) (F)     (DEG/KT/KT) (MB)    (FT/S) (FT/S/D)
BUOY 41004       0910   83 84  220/ 16/ 19 1010.0
BUOY 41008       0850   84 85  190/ 16/ 19 1010.9F   4/ 4   2/ 80/ 8
FOLLY BEACH CMAN 0900   78     180/  5/  8 1011.1F
CAPERS NEARSHORE 0908   77 85  250/  8/ 10 1010.4F
FRIPP NEARSHORE  0908   85     250/ 16/ 21 1010.4F


STATION/POSITION TIME  TEMP    WIND        PRES    WAVE   SWELL
                       AIR SEA DIR/SP/G            HT/PER HT/PER/DIR
                 (UTC) (F)     (DEG/KT/KT) (MB)    (FT/S) (FT/S/D)
5E ST. MARYS GA  0900      84                N/A     3/ 9
FRYING PAN BUOY  0910   78 84  260/  8/ 10 1010.9
BUOY 41025       0850   80 85  320/ 16/ 17 1009.5F   3/ 9   2/140/ 9
CAPE LOOKOUT NC  0900   75     350/ 12/ 15 1010.7R
BUOY 41002       0850   82 84  230/ 12/ 14 1011.6S   3/ 9   2/110/ 9
BUOY 41010       0910   85 85  180/ 10/ 14 1012.2
ST AUGUSTINE FL  0900   78 83  190/  6/  6 1011.8F


$$




USA.gov is the U.S. government's official web portal to all federal, state and local government web resources and services.